ITY1643 LIML-LIBR

Flight info

Callsign ITY1643
Flight time 1h 22m
Altitude 35000
Route LOGDI DCT LURUT DCT ANC DCT GERBU DCT UTENO DCT OTRET DCT PES DCT DIVKU DCT LUXIL L995 ROBOT
Aircraft A320/M-SDE3FGHIRWY/LB1

Departure

Time 2026-04-24 11:31
Airport Milano Linate Airport (LIML)

Arrival

Time 2026-04-24 12:53
Airport Brindisi Airport (LIBR)
Time Latitude Longitude Altitude Speed Heading
2026-04-24 10:53 45.45975 9.27966 360 ft 0 kts 360°
2026-04-24 11:20 45.45969 9.27966 360 ft 2 kts 360°
2026-04-24 11:20 45.45949 9.27966 360 ft 2 kts 360°
2026-04-24 11:20 45.45932 9.27966 360 ft 3 kts 14°
2026-04-24 11:20 45.45915 9.27955 360 ft 3 kts 56°
2026-04-24 11:21 45.45908 9.27930 365 ft 3 kts 85°
2026-04-24 11:21 45.45908 9.27911 360 ft 1 kts 91°
2026-04-24 11:21 45.45908 9.27906 360 ft 0 kts 91°
2026-04-24 11:24 45.45908 9.27908 360 ft 1 kts 91°
2026-04-24 11:24 45.45907 9.27943 361 ft 6 kts 91°
2026-04-24 11:24 45.45891 9.27988 363 ft 5 kts 158°
2026-04-24 11:25 45.45861 9.27987 360 ft 6 kts 184°
2026-04-24 11:25 45.45797 9.27982 360 ft 11 kts 181°
2026-04-24 11:25 45.45713 9.27981 362 ft 13 kts 180°
2026-04-24 11:25 45.45617 9.27979 363 ft 15 kts 181°
2026-04-24 11:26 45.45508 9.27978 360 ft 17 kts 180°
2026-04-24 11:26 45.45385 9.27971 360 ft 18 kts 191°
2026-04-24 11:26 45.45266 9.27893 362 ft 18 kts 205°
2026-04-24 11:26 45.45137 9.27873 360 ft 20 kts 175°
2026-04-24 11:27 45.44997 9.27890 360 ft 21 kts 175°
2026-04-24 11:27 45.44851 9.27936 363 ft 22 kts 168°
2026-04-24 11:27 45.44696 9.27958 360 ft 23 kts 176°
2026-04-24 11:27 45.44533 9.27974 360 ft 24 kts 176°
2026-04-24 11:28 45.44363 9.27992 360 ft 25 kts 175°
2026-04-24 11:28 45.44189 9.28012 363 ft 26 kts 176°
2026-04-24 11:28 45.44009 9.28029 360 ft 26 kts 176°
2026-04-24 11:28 45.43825 9.28048 360 ft 27 kts 175°
2026-04-24 11:29 45.43638 9.28069 362 ft 27 kts 176°
2026-04-24 11:29 45.43498 9.28083 363 ft 14 kts 177°
2026-04-24 11:29 45.43443 9.27985 361 ft 15 kts 265°
2026-04-24 11:29 45.43455 9.27842 365 ft 14 kts 312°
2026-04-24 11:30 45.43514 9.27813 365 ft 0 kts 355°
2026-04-24 11:30 45.43642 9.27798 361 ft 51 kts 355°
2026-04-24 11:31 45.44003 9.27761 360 ft 101 kts 356°
2026-04-24 11:31 45.44605 9.27694 363 ft 144 kts 355°
2026-04-24 11:31 45.45729 9.27572 662 ft 166 kts 354°
2026-04-24 11:31 45.46880 9.27618 1342 ft 166 kts
2026-04-24 11:32 45.48060 9.27809 1947 ft 181 kts
2026-04-24 11:32 45.48932 9.27939 2289 ft 190 kts
2026-04-24 11:32 45.50238 9.28138 3068 ft 191 kts
2026-04-24 11:32 45.51550 9.28482 3733 ft 195 kts 20°
2026-04-24 11:33 45.52705 9.29500 4440 ft 197 kts 43°
2026-04-24 11:33 45.53520 9.31068 5161 ft 199 kts 63°
2026-04-24 11:33 45.53896 9.33023 5585 ft 216 kts 86°
2026-04-24 11:33 45.53659 9.35200 5859 ft 240 kts 111°
2026-04-24 11:34 45.52662 9.37217 6233 ft 265 kts 140°
2026-04-24 11:34 45.50985 9.38474 6786 ft 280 kts 159°
2026-04-24 11:34 45.49153 9.39511 7589 ft 286 kts 150°
2026-04-24 11:34 45.47657 9.41342 8420 ft 287 kts 125°
2026-04-24 11:35 45.46497 9.43741 9410 ft 289 kts 122°
2026-04-24 11:35 45.45390 9.46091 10278 ft 292 kts 121°
2026-04-24 11:35 45.44230 9.48564 10667 ft 312 kts 121°
2026-04-24 11:35 45.42996 9.51203 10944 ft 333 kts 121°
2026-04-24 11:36 45.41676 9.54009 11586 ft 341 kts 121°
2026-04-24 11:36 45.40342 9.56824 12327 ft 345 kts 121°
2026-04-24 11:36 45.38985 9.59659 13090 ft 349 kts 122°
2026-04-24 11:36 45.37410 9.62247 13798 ft 356 kts 134°
2026-04-24 11:37 45.35384 9.64429 14476 ft 363 kts 146°
2026-04-24 11:37 45.33244 9.66276 15142 ft 366 kts 146°
2026-04-24 11:37 45.31037 9.68190 15815 ft 368 kts 146°
2026-04-24 11:37 45.28900 9.70050 16460 ft 371 kts 146°
2026-04-24 11:38 45.26639 9.72021 17133 ft 374 kts 146°
2026-04-24 11:38 45.24440 9.73937 17767 ft 377 kts 146°
2026-04-24 11:38 45.22171 9.75912 18416 ft 380 kts 146°
2026-04-24 11:38 45.19943 9.77848 18950 ft 383 kts 146°
2026-04-24 11:39 45.17663 9.79825 19517 ft 385 kts 146°
2026-04-24 11:39 45.15363 9.81813 20066 ft 389 kts 146°
2026-04-24 11:39 45.13047 9.83814 20618 ft 392 kts 145°
2026-04-24 11:39 45.10710 9.85832 21169 ft 395 kts 145°
2026-04-24 11:40 45.08362 9.87858 21726 ft 397 kts 145°
2026-04-24 11:40 45.05989 9.89906 22268 ft 400 kts 145°
2026-04-24 11:40 45.03604 9.91969 22779 ft 403 kts 145°
2026-04-24 11:40 45.01201 9.94041 23298 ft 406 kts 145°
2026-04-24 11:41 44.98779 9.96125 23780 ft 409 kts 145°
2026-04-24 11:41 44.96337 9.98222 24196 ft 412 kts 145°
2026-04-24 11:41 44.93881 10.00331 24611 ft 414 kts 145°
2026-04-24 11:41 44.91467 10.02404 25012 ft 416 kts 145°
2026-04-24 11:42 44.88941 10.04572 25415 ft 418 kts 145°
2026-04-24 11:42 44.86450 10.06710 25799 ft 420 kts 145°
2026-04-24 11:42 44.83947 10.08857 26179 ft 422 kts 145°
2026-04-24 11:42 44.81433 10.11005 26553 ft 424 kts 145°
2026-04-24 11:43 44.78904 10.13156 26924 ft 426 kts 145°
2026-04-24 11:43 44.76393 10.15300 27288 ft 428 kts 143°
2026-04-24 11:43 44.74038 10.17825 27639 ft 425 kts 134°
2026-04-24 11:43 44.72040 10.20854 27984 ft 423 kts 124°
2026-04-24 11:44 44.70441 10.24307 28327 ft 421 kts 115°
2026-04-24 11:44 44.69287 10.28081 28664 ft 419 kts 106°
2026-04-24 11:44 44.68370 10.31974 28992 ft 421 kts 105°
2026-04-24 11:44 44.67434 10.35938 29314 ft 423 kts 106°
2026-04-24 11:45 44.66500 10.39866 29632 ft 425 kts 106°
2026-04-24 11:45 44.65574 10.43755 29940 ft 427 kts 106°
2026-04-24 11:45 44.64615 10.47768 30232 ft 428 kts 106°
2026-04-24 11:45 44.63664 10.51743 30469 ft 430 kts 106°
2026-04-24 11:46 44.62705 10.55725 30709 ft 432 kts 106°
2026-04-24 11:46 44.61740 10.59721 30946 ft 433 kts 106°
2026-04-24 11:46 44.60770 10.63735 31174 ft 435 kts 106°
2026-04-24 11:46 44.59800 10.67751 31451 ft 435 kts 106°
2026-04-24 11:47 44.58829 10.71759 31768 ft 434 kts 106°
2026-04-24 11:47 44.57857 10.75760 32076 ft 433 kts 106°
2026-04-24 11:47 44.56899 10.79707 32379 ft 432 kts 106°
2026-04-24 11:47 44.55933 10.83685 32659 ft 431 kts 106°
2026-04-24 11:48 44.54966 10.87666 32962 ft 431 kts 106°
2026-04-24 11:48 44.53999 10.91632 33261 ft 430 kts 106°
2026-04-24 11:48 44.53032 10.95590 33563 ft 429 kts 106°
2026-04-24 11:48 44.51945 10.99486 33854 ft 431 kts 113°
2026-04-24 11:49 44.50593 11.03240 34126 ft 431 kts 114°
2026-04-24 11:49 44.49252 11.06940 34375 ft 431 kts 114°
2026-04-24 11:49 44.47882 11.10728 34625 ft 430 kts 113°
2026-04-24 11:49 44.46617 11.14228 34845 ft 430 kts 113°
2026-04-24 11:50 44.45228 11.18062 35057 ft 431 kts 113°
2026-04-24 11:50 44.43963 11.21554 35112 ft 429 kts 113°
2026-04-24 11:50 44.41465 11.28416 35112 ft 427 kts 113°
2026-04-24 11:51 44.38790 11.35755 35128 ft 427 kts 113°
2026-04-24 11:51 44.36101 11.43126 35141 ft 427 kts 113°
2026-04-24 11:52 44.33405 11.50493 35146 ft 427 kts 113°
2026-04-24 11:52 44.30696 11.57862 35148 ft 427 kts 113°
2026-04-24 11:53 44.27976 11.65238 35150 ft 427 kts 113°
2026-04-24 11:53 44.25262 11.72596 35136 ft 427 kts 113°
2026-04-24 11:54 44.22535 11.79960 35124 ft 427 kts 113°
2026-04-24 11:54 44.19807 11.87308 35119 ft 427 kts 113°
2026-04-24 11:55 44.17091 11.94597 35111 ft 427 kts 113°
2026-04-24 11:55 44.14354 12.01938 35107 ft 427 kts 113°
2026-04-24 11:56 44.11606 12.09283 35114 ft 427 kts 113°
2026-04-24 11:56 44.08948 12.16354 35115 ft 428 kts 113°
2026-04-24 11:57 44.06196 12.23660 35131 ft 428 kts 113°
2026-04-24 11:57 44.03426 12.30996 35127 ft 428 kts 113°
2026-04-24 11:58 44.00662 12.38308 35110 ft 428 kts 113°
2026-04-24 11:58 43.97891 12.45612 35103 ft 428 kts 114°
2026-04-24 11:59 43.95130 12.52863 35100 ft 428 kts 114°
2026-04-24 11:59 43.92343 12.60168 35096 ft 428 kts 114°
2026-04-24 12:00 43.89555 12.67469 35103 ft 429 kts 114°
2026-04-24 12:00 43.86755 12.74772 35099 ft 429 kts 114°
2026-04-24 12:01 43.83949 12.82065 35102 ft 429 kts 114°
2026-04-24 12:01 43.81138 12.89369 35105 ft 429 kts 114°
2026-04-24 12:02 43.78327 12.96660 35118 ft 430 kts 114°
2026-04-24 12:02 43.75509 13.03951 35114 ft 430 kts 114°
2026-04-24 12:03 43.72692 13.11206 35120 ft 430 kts 114°
2026-04-24 12:03 43.69871 13.18438 35119 ft 430 kts 114°
2026-04-24 12:04 43.67031 13.25717 35125 ft 431 kts 114°
2026-04-24 12:04 43.64185 13.32995 35119 ft 431 kts 114°
2026-04-24 12:05 43.61332 13.40262 35124 ft 431 kts 115°
2026-04-24 12:05 43.57519 13.46741 35130 ft 443 kts 135°
2026-04-24 12:06 43.55010 13.49249 35129 ft 448 kts 146°
2026-04-24 12:06 43.52208 13.51179 35127 ft 452 kts 152°
2026-04-24 12:06 43.46480 13.54771 35120 ft 453 kts 151°
2026-04-24 12:07 43.40744 13.58381 35121 ft 453 kts 151°
2026-04-24 12:07 43.35047 13.61967 35119 ft 454 kts 151°
2026-04-24 12:08 43.29289 13.65583 35118 ft 455 kts 152°
2026-04-24 12:08 43.23532 13.69192 35122 ft 456 kts 152°
2026-04-24 12:09 43.17757 13.72798 35126 ft 456 kts 152°
2026-04-24 12:09 43.11980 13.76394 35130 ft 456 kts 152°
2026-04-24 12:10 43.06196 13.79982 35136 ft 457 kts 152°
2026-04-24 12:11 42.97515 13.85368 35136 ft 457 kts 152°
2026-04-24 12:11 42.91726 13.88957 35140 ft 457 kts 152°
2026-04-24 12:12 42.85925 13.92543 35143 ft 457 kts 152°
2026-04-24 12:12 42.80173 13.96077 35149 ft 457 kts 152°
2026-04-24 12:13 42.74367 13.99637 35150 ft 457 kts 152°
2026-04-24 12:13 42.68574 14.03186 35150 ft 457 kts 152°
2026-04-24 12:14 42.62779 14.06744 35152 ft 457 kts 153°
2026-04-24 12:14 42.56975 14.10279 35146 ft 457 kts 153°
2026-04-24 12:15 42.51178 14.13801 35146 ft 457 kts 153°
2026-04-24 12:15 42.45517 14.17642 35138 ft 452 kts 142°
2026-04-24 12:16 42.40921 14.23284 35143 ft 444 kts 125°
2026-04-24 12:16 42.37249 14.29915 35141 ft 443 kts 123°
2026-04-24 12:17 42.33549 14.36593 35141 ft 444 kts 123°
2026-04-24 12:17 42.29839 14.43267 35146 ft 444 kts 123°
2026-04-24 12:18 42.26128 14.49943 35143 ft 444 kts 124°
2026-04-24 12:18 42.22417 14.56609 35145 ft 444 kts 124°
2026-04-24 12:19 42.18704 14.63275 35147 ft 444 kts 124°
2026-04-24 12:19 42.14976 14.69930 35145 ft 444 kts 124°
2026-04-24 12:20 42.11252 14.76574 35143 ft 444 kts 124°
2026-04-24 12:20 42.07524 14.83213 35137 ft 445 kts 124°
2026-04-24 12:21 42.03811 14.89798 35138 ft 445 kts 124°
2026-04-24 12:21 42.00070 14.96423 35138 ft 445 kts 124°
2026-04-24 12:22 41.96320 15.03054 35141 ft 446 kts 124°
2026-04-24 12:22 41.92567 15.09678 35142 ft 446 kts 124°
2026-04-24 12:23 41.88805 15.16307 35141 ft 446 kts 124°
2026-04-24 12:23 41.85041 15.22925 35150 ft 446 kts 124°
2026-04-24 12:24 41.81271 15.29523 35147 ft 446 kts 124°
2026-04-24 12:24 41.77485 15.36128 35141 ft 446 kts 124°
2026-04-24 12:25 41.73738 15.42673 35135 ft 446 kts 124°
2026-04-24 12:25 41.69951 15.49266 35129 ft 446 kts 124°
2026-04-24 12:26 41.66167 15.55837 35122 ft 446 kts 124°
2026-04-24 12:26 41.62374 15.62410 35117 ft 446 kts 124°
2026-04-24 12:27 41.58582 15.68973 35113 ft 446 kts 125°
2026-04-24 12:27 41.54787 15.75532 35111 ft 446 kts 124°
2026-04-24 12:28 41.50987 15.82087 35112 ft 446 kts 125°
2026-04-24 12:28 41.47075 15.88527 35110 ft 447 kts 128°
2026-04-24 12:29 41.42975 15.94761 35107 ft 448 kts 129°
2026-04-24 12:29 41.38837 16.00976 35107 ft 448 kts 128°
2026-04-24 12:30 41.34737 16.07210 35107 ft 448 kts 128°
2026-04-24 12:30 41.30660 16.13458 35106 ft 448 kts 128°
2026-04-24 12:31 41.26575 16.19719 35102 ft 448 kts 128°
2026-04-24 12:31 41.22516 16.25918 35099 ft 448 kts 128°
2026-04-24 12:32 41.18426 16.32148 35098 ft 448 kts 128°
2026-04-24 12:32 41.16372 16.35265 34794 ft 451 kts 128°
2026-04-24 12:32 41.14282 16.38431 33624 ft 461 kts 128°
2026-04-24 12:32 41.12166 16.41635 32914 ft 459 kts 128°
2026-04-24 12:33 41.10076 16.44795 32358 ft 453 kts 128°
2026-04-24 12:33 41.08012 16.47917 31764 ft 449 kts 128°
2026-04-24 12:33 41.05956 16.51025 31165 ft 446 kts 128°
2026-04-24 12:33 41.04651 16.52995 30793 ft 444 kts 128°
2026-04-24 12:34 41.02586 16.56106 30209 ft 441 kts 128°
2026-04-24 12:34 41.00568 16.59141 29580 ft 438 kts 128°
2026-04-24 12:34 40.98560 16.62152 29020 ft 433 kts 128°
2026-04-24 12:34 40.96574 16.65126 28461 ft 429 kts 128°
2026-04-24 12:35 40.94609 16.68073 27905 ft 425 kts 128°
2026-04-24 12:35 40.92660 16.70996 27368 ft 422 kts 128°
2026-04-24 12:35 40.90734 16.73886 26852 ft 418 kts 128°
2026-04-24 12:35 40.88819 16.76763 26343 ft 415 kts 128°
2026-04-24 12:36 40.86921 16.79607 25839 ft 411 kts 128°
2026-04-24 12:36 40.85031 16.82431 25359 ft 409 kts 128°
2026-04-24 12:36 40.83254 16.85318 24887 ft 402 kts 120°
2026-04-24 12:36 40.81906 16.88514 24417 ft 395 kts 109°
2026-04-24 12:37 40.81040 16.91910 23963 ft 388 kts 100°
2026-04-24 12:37 40.80436 16.95320 23469 ft 385 kts 99°
2026-04-24 12:37 40.79821 16.98741 22995 ft 381 kts 99°
2026-04-24 12:37 40.79206 17.02130 22539 ft 378 kts 100°
2026-04-24 12:38 40.78591 17.05488 22079 ft 375 kts 100°
2026-04-24 12:38 40.77980 17.08822 21618 ft 372 kts 100°
2026-04-24 12:38 40.77374 17.12130 21160 ft 370 kts 100°
2026-04-24 12:39 40.75584 17.21939 19760 ft 365 kts 99°
2026-04-24 12:39 40.74992 17.25188 19286 ft 364 kts 99°
2026-04-24 12:39 40.74400 17.28426 18821 ft 363 kts 100°
2026-04-24 12:40 40.73805 17.31660 18357 ft 362 kts 100°
2026-04-24 12:40 40.73211 17.34878 17851 ft 361 kts 100°
2026-04-24 12:40 40.72613 17.38086 17381 ft 359 kts 100°
2026-04-24 12:40 40.72022 17.41261 16948 ft 356 kts 100°
2026-04-24 12:41 40.71433 17.44424 16505 ft 354 kts 100°
2026-04-24 12:41 40.70930 17.47321 16090 ft 351 kts 96°
2026-04-24 12:41 40.70573 17.50527 15639 ft 349 kts 95°
2026-04-24 12:41 40.70243 17.53687 15196 ft 347 kts 94°
2026-04-24 12:42 40.69925 17.56799 14757 ft 346 kts 94°
2026-04-24 12:42 40.69601 17.59937 14313 ft 345 kts 94°
2026-04-24 12:42 40.69275 17.63064 13862 ft 344 kts 95°
2026-04-24 12:42 40.68948 17.66177 13377 ft 342 kts 94°
2026-04-24 12:43 40.68624 17.69262 12925 ft 339 kts 94°
2026-04-24 12:43 40.68302 17.72326 12477 ft 336 kts 95°
2026-04-24 12:43 40.67984 17.75358 12028 ft 333 kts 94°
2026-04-24 12:43 40.67665 17.78372 11583 ft 331 kts 94°
2026-04-24 12:44 40.67345 17.81362 11129 ft 329 kts 95°
2026-04-24 12:44 40.67024 17.84337 10676 ft 327 kts 95°
2026-04-24 12:44 40.66705 17.87298 10303 ft 324 kts 95°
2026-04-24 12:44 40.66402 17.90081 10188 ft 314 kts 95°
2026-04-24 12:45 40.66113 17.92731 10064 ft 304 kts 95°
2026-04-24 12:45 40.65719 17.95423 9950 ft 297 kts 104°
2026-04-24 12:45 40.64965 17.97940 9620 ft 294 kts 110°
2026-04-24 12:45 40.64159 18.00408 9195 ft 292 kts 110°
2026-04-24 12:46 40.63352 18.02844 8686 ft 290 kts 110°
2026-04-24 12:46 40.62545 18.05268 8096 ft 288 kts 110°
2026-04-24 12:46 40.61752 18.07647 7522 ft 286 kts 111°
2026-04-24 12:46 40.60956 18.10041 6933 ft 285 kts 111°
2026-04-24 12:47 40.60165 18.12423 6358 ft 283 kts 111°
2026-04-24 12:47 40.59163 18.14641 5886 ft 282 kts 128°
2026-04-24 12:47 40.57769 18.16389 5746 ft 271 kts 136°
2026-04-24 12:47 40.56372 18.17969 5615 ft 260 kts 143°
2026-04-24 12:48 40.54724 18.18716 5439 ft 250 kts 183°
2026-04-24 12:48 40.53134 18.18004 5096 ft 243 kts 222°
2026-04-24 12:48 40.51955 18.16420 4649 ft 244 kts 232°
2026-04-24 12:48 40.51171 18.14513 4219 ft 236 kts 267°
2026-04-24 12:49 40.51421 18.12501 3886 ft 222 kts 302°
2026-04-24 12:49 40.52409 18.11015 3600 ft 215 kts 321°
2026-04-24 12:49 40.53514 18.09717 3266 ft 211 kts 320°
2026-04-24 12:49 40.54583 18.08431 2927 ft 204 kts 319°
2026-04-24 12:50 40.55598 18.07198 2678 ft 196 kts 319°
2026-04-24 12:50 40.56596 18.05982 2414 ft 195 kts 319°
2026-04-24 12:50 40.57582 18.04786 2193 ft 191 kts 319°
2026-04-24 12:50 40.58531 18.03634 2101 ft 185 kts 319°
2026-04-24 12:51 40.59443 18.02511 1933 ft 176 kts 318°
2026-04-24 12:51 40.60321 18.01427 1615 ft 170 kts 318°
2026-04-24 12:51 40.61162 18.00394 1313 ft 160 kts 318°
2026-04-24 12:51 40.61948 17.99436 1050 ft 148 kts 318°
2026-04-24 12:52 40.62666 17.98564 878 ft 134 kts 318°
2026-04-24 12:52 40.63343 17.97734 688 ft 132 kts 317°
2026-04-24 12:52 40.64008 17.96924 505 ft 128 kts 317°
2026-04-24 12:52 40.64660 17.96129 331 ft 127 kts 317°
2026-04-24 12:53 40.65304 17.95345 138 ft 125 kts 317°
2026-04-24 12:53 40.65922 17.94591 42 ft 112 kts 318°
2026-04-24 12:53 40.66380 17.94033 41 ft 65 kts 317°
2026-04-24 12:53 40.66585 17.93784 40 ft 15 kts 317°
2026-04-24 12:54 40.66649 17.93706 40 ft 14 kts 317°
2026-04-24 12:54 40.66720 17.93622 39 ft 10 kts 329°
2026-04-24 12:54 40.66768 17.93666 41 ft 7 kts 48°
2026-04-24 12:54 40.66791 17.93699 42 ft 3 kts 48°
2026-04-24 12:55 40.66813 17.93730 43 ft 6 kts 47°
2026-04-24 12:55 40.66824 17.93779 44 ft 5 kts 108°
2026-04-24 12:55 40.66794 17.93820 44 ft 9 kts 137°
2026-04-24 12:55 40.66742 17.93884 44 ft 13 kts 137°
2026-04-24 12:56 40.66663 17.93979 44 ft 15 kts 137°
2026-04-24 12:56 40.66589 17.94067 44 ft 14 kts 138°
2026-04-24 12:56 40.66522 17.94147 44 ft 13 kts 137°
2026-04-24 12:56 40.66461 17.94222 44 ft 11 kts 137°
2026-04-24 12:57 40.66389 17.94308 44 ft 17 kts 137°
2026-04-24 12:57 40.66291 17.94429 44 ft 22 kts 136°
2026-04-24 12:57 40.66169 17.94580 44 ft 24 kts 138°
2026-04-24 12:57 40.66069 17.94699 44 ft 12 kts 142°
2026-04-24 12:58 40.66004 17.94661 42 ft 11 kts 230°
2026-04-24 12:58 40.65953 17.94571 39 ft 13 kts 233°
2026-04-24 12:58 40.65902 17.94486 41 ft 10 kts 232°
2026-04-24 12:58 40.65867 17.94426 43 ft 8 kts 232°
2026-04-24 12:59 40.65820 17.94347 43 ft 13 kts 232°
2026-04-24 12:59 40.65772 17.94266 44 ft 9 kts 232°
2026-04-24 12:59 40.65786 17.94221 44 ft 6 kts 321°
2026-04-24 12:59 40.65827 17.94180 44 ft 8 kts 321°
2026-04-24 13:00 40.65844 17.94163 44 ft 0 kts 322°